Regional Weather Roundup
Issued by NWS Newport/Morehead, NC

Current Version | Previous Version | Text Only | Print | Product List | Glossary On
Versions: 1 2 3 4 5 6 7 8 9 10 11 12 13 14 15 16 17 18 19 20 21 22 23 24 25 26 27 28 29 30 31 32 33 34 35 36 37 38 39 40 41 42 43 44 45 46 47 48 49 50
983
ASUS42 KMHX 081325
RWRMHX
WEATHER ROUNDUP FOR EASTERN NORTH CAROLINA
NATIONAL WEATHER SERVICE NEWPORT/MOREHEAD CITY NC
800 AM EST MON FEB 08 2016

NOTE: "FAIR" INDICATES FEW OR NO CLOUDS BELOW 12,000 FEET
WITH NO SIGNIFICANT WEATHER AND/OR OBSTRUCTIONS TO VISIBILITY

NCZ015>017-031-032-045>047-102-103-081400-
NORTH COAST

CITY           SKY/WX    TMP DP  RH WIND       PRES   REMARKS
EDENTON        SUNNY     38  27  64 NW7       29.81R
ELIZABETH CITY SUNNY     35  26  69 W10       29.78R
KITTY HAWK     CLOUDY    39  32  75 W7G16     29.75R
MANTEO         MOSUNNY   38  31  74 NW12G18   29.77R

$$

NCZ045>047-081-094-103-104-081400-
CENTRAL COAST

CITY           SKY/WX    TMP DP  RH WIND       PRES   REMARKS
FRISCO         SUNNY     41  30  65 NW15G23   29.77R
SWANQUARTER      N/A     37 N/A N/A NW8G15    29.77S

$$

NCZ095-097-098-100-101-081400-
SOUTHERN COAST

CITY           SKY/WX    TMP DP  RH WIND       PRES   REMARKS
BEAUFORT       SUNNY     37  28  70 NW14        N/A
CEDAR ISLAND     N/A     39 N/A N/A W14G23    29.85S
JACKSONVILLE   SUNNY     36  26  67 W8        29.86R
PINEY ISLAND   NOT AVBL
WILMINGTON     CLEAR     36  30  79 SW6       29.88R


$$

NCZ011>013-027>030-043-044-078>080-089-090>093-098-081400-
COASTAL PLAIN

CITY           SKY/WX    TMP DP  RH WIND       PRES   REMARKS
AHOSKIE        CLEAR     34  24  66 CALM      29.81F
CLINTON        CLEAR     31  30  96 CALM      29.87R
ELIZABETHTOWN  CLEAR     35  29  80 CALM      29.87S
GOLDSBORO      CLEAR     34  32  93 CALM      29.83S
GREENVILLE     CLEAR     37  27  65 NW5       29.85S
HAVELOCK       SUNNY     37  25  61 W7        29.84S
KENANSVILLE      N/A     34  28  80 CALM      29.87R
KINSTON        CLEAR     36  27  69 W3        29.85S
NEW BERN       SUNNY     36  25  64 NW6       29.84S
RICHLANDS      CLEAR     37  23  56 W3        29.86S
ROCKY MOUNT    CLEAR     32  26  78 CALM      29.84S
WASHINGTON     CLEAR     36  26  65 CALM      29.83R
WHITEVILLE     PTCLDY    33  30  90 SW5       29.88R

$$

AMZ130-135-150-152-154-156-158-170-250-252-270-ANZ085-086-088-633-658-670-081400-
MARINE OBSERVATIONS

STATION/POSITION TIME  TEMP    WIND        PRES    WAVE   SWELL
                       AIR SEA DIR/SP/G            HT/PER HT/PER
                 (UTC) (F)     (DEG/KT/KT) (MB)    (FT/S) (FT/S)
CHESAPEAKE LIGHT 1300   41     340/ 25/ 27 1007.7
64 E VA BEACH    1250   46 53  340/ 27/ 33 1003.6   17/12  15/12
DUCK             1300   39 51  300/ 14/ 18 1007.2
2 E DUCK         1311      44                N/A    11/13   8/13
OREGON INLET     1300   41 45  300/ 16/ 20 1007.6
13E OREGON INLT  1300      47                N/A    19/15  15/15
HATTERAS CG      1300   42 46  300/ 24/ 27 1007.6
DIAMOND BUOY     1250   44 59  310/ 23/ 29 1007.3   12/17  10/17
CAPE LOOKOUT     NOT AVBL
BEAUFORT LAB     1300   38 46  310/  7/ 11 1009.0
30 SE NEW RVR IN 1308   46 60              1009.3
30 SE NEW RVR IN 1225      60                N/A     8/13   5/13
27 SE WRIGHTSVLE 1308   49 60  360/ 16/ 21 1010.0
5 SE WRIGHTSVLE  1208   43 52  310/ 14/ 19 1011.4
225 S CAPE HAT   1250   58 69  300/ 25/ 35   N/A    25/14  20/14
41 SE CHARLESTON 1250   54 66  280/ 14/ 17 1012.1    5/11   3/11

$$




USA.gov is the U.S. government's official web portal to all federal, state and local government web resources and services.